Weather in Gore

Ethiopia     8°09′10″N   35°31′50″E
temp.,
°C
wind,
m/s
gust,
m/s
humid.,
%
clouds,
%
prec.,
mm/h
press.,
hPa
HPBL,
m
20 april, tue
tue2000:00+15s2268100 0.0 101423
03:00+15se226580 0.0 101331
06:00+15se216459 0.0 101417
09:00+25e233320 0.0 1013592
12:00+32nne231980 0.0 10093566
15:00+30ne232199 0.0 10063162
18:00+27wnw2225100 0.0 1007564
21:00+20sse1142100 0.0 101012
21 april, wed
wed2100:00+18se2249100 0.0 101216
03:00+17se115239 0.0 101113
06:00+19ese114990 0.0 101233
09:00+26sse113378 0.0 1012721
12:00+31nnw332098 0.0 10093891
15:00+32nw3419100 0.0 10053636
18:00+27wsw353652 0.0 1007725
21:00+17ssw238051 0.0 101357
22 april, thu
thu2200:00+15sse238673 0.0 101449
03:00+17sse1272100 0.0 101257
06:00+16se1178100 0.2 101412
09:00+23ssw015499 0.6 1014482
12:00+27wnw4438100 0.0 10111766
15:00+17sse3584100 0.8 1012155
18:00+16w3994100 1.2 1012347
21:00+15se139896 1.7 101487
23 april, fri
fri2300:00+14sse2297100 0.0 101534
03:00+14se119399 0.0 101317
06:00+15sse1194100 1.3 101435
09:00+20se127292 1.4 1014261
12:00+30nw2430100 0.0 10102897
15:00+17ssw3694100 3.1 1011164
18:00+17ssw2388100 0.3 101263
21:00+15s2397100 0.4 101562
24 april, sat
sat2400:00+15se2393100 0.0 101558
03:00+15sse119299 0.1 101312
06:00+14se1193100 0.2 101412
09:00+18se2379100 0.3 1014129
12:00+27ssw0235100 0.0 1010887
15:00+27nw223391 0.0 10071318
18:00+20wnw2762100 0.1 1010227
21:00+17sw279499 2.1 1012147